Rifle, CO

4:10 PM MDT on April 30, 2017 (GMT -0600)
Garfield County Regional

Weather History for KRIL - June, 2013

Change the Weather History Date:

Tuesday, June 11, 2013

  Actual Average Record
Temperature  
Mean Temperature 71 °F 65 °F  
Max Temperature 90 °F 84 °F 97 °F (1918)
Min Temperature 52 °F 46 °F 32 °F (1975)
Degree Days  
Heating Degree Days 0 3  
Month to date heating degree days 13 40  
Since 1 June heating degree days 13 40  
Since 1 July heating degree days 6694 6606  
Cooling Degree Days 6 2  
Month to date cooling degree days 30 18  
Year to date cooling degree days 37 25  
Since 1 June cooling degree days 30 18  
Growing Degree Days 21 (Base 50)    
Moisture  
Dew Point 24 °F    
Average Humidity 25    
Maximum Humidity 43    
Minimum Humidity 7    
Precipitation  
Precipitation 0.00 in 0.04 in 0.54 in (1967)
Month to date precipitation 0.00 0.44  
Year to date precipitation 3.99 5.86  
Sea Level Pressure  
Sea Level Pressure 29.81 in    
Wind  
Wind Speed 12 mph (SW)    
Max Wind Speed 33 mph    
Max Gust Speed 51 mph    
Visibility 10 miles    
Events      
T = Trace of Precipitation, MM = Missing Value Source: NWS Daily Summary

Daily Weather History Graph

Daily Weather History Graph

Search for Another Location

Airport or City:

Trip Planner

Search our weather history database for the weather conditions in past years. The results will help you decide how hot, cold, wet, or windy it might be!

Date:

Astronomy

Jun. 11, 2013 Rise Set
Actual Time 5:43 AM MDT 8:38 PM MDT
Civil Twilight 5:10 AM MDT 9:10 PM MDT
Nautical Twilight 4:29 AM MDT 9:51 PM MDT
Astronomical Twilight 3:42 AM MDT 10:39 PM MDT
Moon 8:28 AM MDT (6/11) 10:43 PM MDT (6/11)
Length of Visible Light 16h 00m
Length of Day
14h 55m
Waxing Crescent, 8% of the Moon is Illuminated
Jun 11
Waxing Crescent
Jun 16
First Quarter
Jun 23
Full
Jun 29
Last Quarter
Jul 8
New

Hourly Weather History & Observations

Time (MDT) Temp. Dew Point Humidity Pressure Visibility Wind Dir Wind Speed Gust Speed Precip Events Conditions
12:53 AM 66.9 °F 28.0 °F 23% 29.71 in 10.0 mi ESE 10.4 mph - N/A   Clear
1:53 AM 66.0 °F 28.9 °F 25% 29.71 in 10.0 mi East 5.8 mph - N/A   Clear
2:53 AM 60.1 °F 30.0 °F 32% 29.74 in 10.0 mi WSW 4.6 mph - N/A   Clear
3:53 AM 59.0 °F 30.0 °F 33% 29.75 in 10.0 mi Variable 5.8 mph - N/A   Clear
4:53 AM 55.9 °F 28.9 °F 36% 29.77 in 10.0 mi Calm Calm - N/A   Clear
5:53 AM 53.1 °F 30.9 °F 43% 29.80 in 10.0 mi Calm Calm - N/A   Clear
6:53 AM 55.9 °F 34.0 °F 44% 29.81 in 10.0 mi Calm Calm - N/A   Clear
7:53 AM 64.0 °F 33.1 °F 31% 29.82 in 10.0 mi ENE 3.5 mph - N/A   Clear
8:53 AM 79.0 °F 24.1 °F 13% 29.76 in 10.0 mi SSE 13.8 mph 18.4 mph N/A   Clear
9:53 AM 80.1 °F 26.1 °F 14% 29.77 in 10.0 mi WNW 12.7 mph 20.7 mph N/A   Clear
10:48 AM 84.2 °F 19.4 °F 9% 30.01 in 10.0 mi SW 17.3 mph 41.4 mph N/A   Clear
10:53 AM 84.9 °F 19.9 °F 9% 29.76 in 10.0 mi SW 19.6 mph 26.5 mph N/A   Clear
11:53 AM 87.1 °F 18.0 °F 8% 29.77 in 10.0 mi WSW 25.3 mph 39.1 mph N/A   Clear
12:51 PM 87.8 °F 17.6 °F 8% 30.00 in 10.0 mi SSW 26.5 mph 34.5 mph N/A   Clear
12:53 PM 88.0 °F 18.0 °F 8% 29.75 in 10.0 mi SW 24.2 mph 34.5 mph N/A   Clear
1:53 PM 89.1 °F 19.0 °F 8% 29.73 in 10.0 mi SW 23.0 mph 31.1 mph N/A   Clear
2:53 PM 89.1 °F 21.9 °F 9% 29.74 in 10.0 mi West 27.6 mph 34.5 mph N/A   Clear
3:02 PM 89.6 °F 21.2 °F 8% 29.98 in 10.0 mi West 17.3 mph 35.7 mph N/A   Clear
3:53 PM 89.1 °F 19.9 °F 8% 29.76 in 10.0 mi West 24.2 mph 40.3 mph N/A   Clear
4:53 PM 88.0 °F 19.9 °F 8% 29.78 in 10.0 mi West 20.7 mph 36.8 mph N/A   Clear
5:53 PM 87.1 °F 19.9 °F 8% 29.80 in 10.0 mi West 23.0 mph 38.0 mph N/A   Clear
6:53 PM 86.0 °F 19.9 °F 9% 29.81 in 10.0 mi West 23.0 mph 31.1 mph N/A   Clear
7:53 PM 82.9 °F 21.0 °F 10% 29.81 in 10.0 mi West 15.0 mph 19.6 mph N/A   Clear
8:53 PM 77.0 °F 21.0 °F 12% 29.81 in 10.0 mi SW 9.2 mph - N/A   Clear
9:53 PM 70.0 °F 21.9 °F 16% 29.84 in 10.0 mi ENE 3.5 mph - N/A   Clear
10:53 PM 66.9 °F 26.1 °F 21% 29.88 in 10.0 mi Calm Calm - N/A   Clear
11:53 PM 61.0 °F 26.1 °F 26% 29.91 in 10.0 mi ESE 6.9 mph - N/A   Clear